Location: Eaton
(41.3139°N, 82.0207°W)
Time: 03:01:01
(UTC+00:00)

DELTA 2 DEB (DPAF) - Visible Passes

Search period start: 23 October 2021 00:00
Search period end: 02 November 2021 00:00
Orbit: 638 x 645 km, 98.4° (Epoch: 22 October)

Date Brightness Start Highest point End Pass type
(mag) Time Alt. Az. Time Alt. Az. Time Alt. Az.
23 Oct 7.3 23:00:25 10° NW 23:01:15 10° WNW 23:02:05 10° WNW visible
27 Oct 7.2 22:59:20 10° NW 23:00:30 11° WNW 23:01:39 10° WNW visible
31 Oct 7.1 22:58:19 10° NW 22:59:43 11° WNW 23:01:07 10° W visible
